User: anonymous
Location: Prairie State College
(41.5244°N, 87.6382°W)
Time: 06:45:49
(UTC-05:00)
Language:

Cosmos 1140 Rocket - Orbit

View from above orbital plane
View from above orbital plane
View from above satellite
View from above satellite

Ground track
Ground track

The orbit data is extracted from the following two-line orbital elements,

1 11574U 79089B   14233.82791468  .00000116  00000-0  44729-4 0  8110
2 11574 074.0719 320.5210 0014936 129.1334 009.8212 14.40246672828799
Epoch (UTC): 21 August 2014 19:52:11
Eccentricity: 0.0014936
inclination: 74.0719°
perigee height: 747 km
apogee height: 768 km
right ascension of ascending node: 320.5210°
argument of perigee: 129.1334°
revolutions per day: 14.40246672
mean anomaly at epoch: 9.8212°
orbit number at epoch: 82879

The dashed part of the orbit path shows where the satellite is in the earth's shadow,  

DLR